Location: Dappach
(48.9767°N, 9.6998°E)
Time: 21:02:53
(UTC+00:00)

Cosmos 2322 Rocket - Pass Details

Date: 23 May 2024
Orbit: 831 x 850 km, 71.0° (Epoch: 23 June)

Event Time Altitude Azimuth Distance (km) Brightness Sun altitude
Rises 00:51:17 0° 333° (NNW) 3,400 6.0 -17.3°
Reaches altitude 10° 00:53:47 10° 338° (NNW) 2,465 5.2 -17.2°
Maximum altitude 00:59:21 57° 57° (ENE) 991 2.8 -16.8°
Drops below altitude 10° 01:04:55 10° 135° (SE) 2,463 4.4 -16.4°
Sets 01:07:24 0° 140° (SE) 3,397 5.1 -16.2°
